RH
14 16 59 86 66 85 64 47 38 37 36 38 52 51 47 44 37 59 46 36 28 35 32 32 30 26 20 17 15 14 13 13 13 13 12 11 9 6 6 7 7 6 6 5 6 7 8 8 8
6 16 21 92 78 75 64 55 35 39 35 36 54 53 48 43 44 40 27 30 30 35 37 32 26 21 17 14 13 13 13 12 12 11 9 7 5 6 7 7 6 6 5 6 6 7 8 8 8
6 13 18 85 90 61 59 60 39 39 38 37 55 53 51 47 45 31 23 23 29 34 38 27 22 17 14 13 12 12 12 11 10 8 6 5 6 6 7 6 6 5 5 6 7 8 8 7 7
9 9 20 66 72 73 62 62 51 40 38 43 47 56 49 47 38 20 14 25 28 31 36 25 18 14 13 12 12 12 11 10 8 6 6 6 6 6 6 6 6 5 5 6 6 7 6 6 6
10 9 56 54 55 81 68 66 55 40 39 45 49 54 42 48 37 16 15 28 29 31 30 20 16 13 12 12 12 12 12 10 8 7 6 6 6 6 6 6 5 5 5 6 6 6 6 6 7
12 25 42 48 43 83 68 61 58 46 41 53 57 54 45 45 36 20 17 28 32 33 23 17 13 12 12 12 12 12 12 12 10 8 6 6 6 6 6 5 5 5 6 6 6 6 7 7 6
14 55 40 38 44 65 77 63 58 50 39 47 59 58 48 42 34 25 14 26 29 28 24 15 13 12 12 12 12 12 12 12 11 9 6 6 6 6 6 5 5 6 6 6 6 7 7 6 4
34 78 48 55 50 61 78 73 57 61 44 46 63 64 50 37 34 31 14 20 25 20 18 14 12 12 12 12 12 12 12 12 12 10 7 6 6 6 6 5 6 6 6 6 7 6 6 5 5
63 62 49 56 68 58 72 81 64 61 49 54 69 64 55 39 33 33 24 14 20 17 14 13 12 12 11 12 12 12 12 11 12 11 9 8 7 6 6 6 6 6 6 7 6 6 6 5 6
98 76 54 62 75 72 59 75 76 62 59 58 72 66 53 44 35 37 34 19 14 15 13 13 12 12 12 12 12 12 12 11 11 12 11 9 7 6 6 6 6 6 7 7 7 6 6 6 7
94 98 75 77 78 64 74 74 78 68 65 60 68 67 52 39 32 42 42 30 15 15 14 13 13 13 13 12 12 12 12 11 11 12 12 10 8 6 6 6 6 7 7 7 7 6 6 6 7
97 91 92 69 59 49 56 74 83 71 80 60 61 65 66 43 32 44 47 42 25 17 14 14 15 16 16 15 14 13 12 12 11 11 12 12 9 7 7 6 7 8 8 8 7 7 6 6 7
92 94 86 61 70 57 24 42 67 72 68 64 59 60 51 55 44 52 52 49 32 21 18 18 18 20 22 20 18 15 14 13 12 12 12 12 12 9 7 7 8 8 8 8 8 7 6 7 7
96 93 90 72 72 64 45 35 40 51 72 67 63 62 55 56 56 60 58 56 34 27 24 24 24 28 30 28 24 20 19 17 14 12 12 12 13 12 8 7 8 9 8 8 8 7 7 7 8
95 92 94 74 66 76 66 51 34 42 58 71 70 69 70 58 59 61 69 70 38 32 32 32 37 37 39 38 34 27 24 22 18 13 12 13 13 13 11 8 8 9 9 9 8 8 8 7 8
98 95 98 74 56 65 81 54 63 21 28 67 72 75 68 73 60 55 71 80 55 50 54 55 55 57 55 51 46 37 31 27 23 16 13 13 14 14 12 8 9 10 10 10 9 9 8 6 7
98 93 90 80 52 69 83 66 73 29 18 40 72 74 71 72 78 66 67 80 88 94 79 74 70 77 75 70 58 47 39 31 26 19 14 14 14 15 12 9 10 11 10 10 10 10 7 6 8
96 93 90 79 56 43 71 74 68 67 28 26 61 76 75 80 82 78 76 68 81 97 99 98 87 78 85 79 64 54 46 35 29 23 17 14 15 15 12 11 11 11 11 11 10 10 7 7 9
90 84 95 86 73 44 58 68 68 71 63 68 67 82 83 95 97 92 79 91 97 97 96 99 94 91 80 70 62 55 48 37 32 26 20 16 15 15 12 12 12 12 12 12 11 9 8 8 7
98 93 94 82 78 56 53 57 61 64 68 82 83 87 90 90 93 96 90 92 84 88 88 78 77 73 64 56 59 59 46 38 35 30 25 18 16 15 13 13 13 13 13 13 11 9 8 6 6
98 92 90 69 73 49 51 43 59 60 63 84 83 88 96 88 92 90 79 98 87 80 86 81 59 65 53 53 62 57 43 42 39 33 26 17 16 14 14 15 15 14 14 14 11 10 8 13 21
92 81 77 71 76 46 47 43 54 62 65 78 86 81 78 97 98 97 88 78 75 66 63 69 69 69 56 59 56 50 47 44 40 34 21 17 16 15 16 16 17 17 17 13 12 11 19 26 29
79 59 68 71 80 66 58 54 41 55 59 73 83 85 88 81 94 100 99 89 73 76 78 76 91 86 88 64 56 49 42 40 36 24 18 16 17 19 19 20 20 19 15 13 13 22 26 25 24
65 66 67 68 67 66 55 48 45 47 56 64 75 77 80 76 92 93 83 91 83 85 80 72 58 90 52 47 41 34 30 27 22 18 18 18 22 23 23 24 22 18 17 16 23 28 27 26 27
64 76 71 73 78 58 63 61 55 58 50 52 60 68 72 72 80 74 83 77 78 77 74 64 46 47 44 43 36 26 22 21 20 19 22 25 26 26 26 25 23 22 22 28 32 32 32 32 32
60 64 63 62 60 55 58 56 52 49 61 61 62 56 54 61 61 58 62 63 64 53 49 45 46 46 43 38 27 22 21 21 24 25 28 28 29 29 28 29 28 28 35 37 36 35 34 34 34
54 60 53 48 51 51 55 48 44 44 44 46 54 61 62 57 52 54 62 60 63 57 54 48 43 38 35 26 25 25 25 25 27 30 30 31 32 33 33 33 37 41 38 35 34 32 30 30 32
52 52 53 45 57 48 45 48 38 36 41 37 44 50 50 50 51 54 63 63 59 56 52 38 33 27 28 28 27 28 29 30 30 31 33 35 36 37 41 44 40 36 34 32 30 30 28 30 34
40 46 46 38 39 39 32 42 33 34 35 35 32 30 35 47 59 66 66 62 59 50 34 31 31 31 32 33 32 32 29 31 33 37 41 44 46 44 41 40 39 39 38 35 32 29 31 36 40
31 33 37 36 38 42 43 48 30 28 29 29 30 30 33 47 59 62 61 56 42 36 37 35 34 35 34 31 29 29 32 42 46 48 47 44 43 45 45 44 40 34 30 28 28 28 32 34 38
Wind_Speed
38 36 32 25 14 12 22 17 20 16 21 15 17 12 8 3 7 4 6 16 15 13 9 9 8 7 6 6 5 5 5 5 5 5 5 5 5 6 7 8 9 10 11 12 12 12 12 13 13
38 36 34 27 21 22 25 23 21 16 22 17 19 15 9 5 6 4 6 16 17 15 11 9 8 8 7 6 6 5 5 5 5 5 5 5 6 6 7 8 10 11 12 13 13 13 14 15 15
35 37 35 21 25 35 24 24 23 17 21 19 20 17 10 7 6 4 10 16 17 17 13 10 10 9 8 7 6 6 6 5 5 5 5 5 5 6 6 8 10 12 13 14 14 15 15 16 17
33 34 39 31 33 27 26 12 29 20 21 21 21 19 15 7 6 6 11 16 16 16 13 12 11 10 9 8 7 6 5 5 5 5 5 5 4 5 7 8 9 11 12 14 15 15 16 18 19
32 37 30 35 35 26 30 20 22 23 20 22 24 23 14 11 7 8 13 16 16 15 14 13 13 11 9 8 7 6 5 5 5 4 4 4 5 6 7 8 10 11 13 14 15 17 18 20 21
33 35 28 40 35 29 32 33 23 26 21 25 26 23 15 12 10 9 15 18 18 16 14 14 13 11 10 8 7 6 5 5 5 4 4 5 5 6 7 9 11 13 14 15 16 18 19 21 23
35 29 34 26 30 31 31 33 34 22 23 26 27 24 19 15 14 12 16 18 18 18 17 16 14 12 10 8 7 5 5 5 5 5 4 5 5 7 8 9 11 12 14 15 17 19 21 23 23
31 24 27 24 29 29 28 33 32 27 24 25 28 23 22 16 17 15 16 18 19 20 20 17 15 12 9 7 5 4 4 5 5 5 4 5 6 7 8 9 11 13 14 15 18 20 22 23 23
28 22 26 29 19 26 28 30 31 33 26 28 30 25 20 16 19 19 17 19 21 21 20 18 15 12 9 7 5 3 2 3 5 4 5 5 6 7 8 10 11 12 14 16 18 21 23 23 23
26 25 21 21 18 22 24 29 29 33 29 30 29 26 21 19 19 19 17 17 20 20 19 17 14 11 9 7 5 3 1 2 4 5 6 6 7 7 9 10 12 13 16 18 20 22 24 24 23
27 20 19 13 25 21 28 24 32 34 31 29 29 26 21 19 21 22 20 18 18 20 19 16 14 12 9 7 6 4 1 2 3 5 7 8 8 9 10 11 13 15 17 20 22 23 24 23 22
19 24 18 13 21 27 23 28 32 36 25 29 25 23 22 18 23 25 23 21 21 21 20 18 16 12 11 9 7 5 3 3 4 6 7 9 10 10 11 13 14 16 18 20 22 23 24 23 22
23 17 19 20 18 21 33 30 29 40 32 31 27 22 33 20 20 25 26 23 25 23 21 19 16 14 13 9 8 7 5 4 6 7 8 9 11 12 13 14 15 17 19 21 22 23 22 22 21
15 19 16 25 22 22 26 28 33 38 35 30 30 26 34 27 17 27 30 28 26 26 22 19 18 16 13 10 8 9 7 6 8 9 10 11 12 14 14 15 16 18 19 21 22 22 23 23 22
18 16 8 23 26 24 25 24 30 30 39 33 28 29 25 38 23 20 26 28 28 26 25 22 19 16 12 10 9 10 10 8 10 11 12 13 13 14 16 16 17 18 20 21 23 24 26 25 24
15 11 12 11 31 29 19 19 17 32 40 39 29 27 30 28 36 25 20 29 28 25 21 20 19 16 14 12 10 11 13 11 12 13 14 14 15 15 16 17 17 18 20 22 23 25 26 27 26
11 6 12 6 32 29 24 13 14 24 34 40 36 28 29 31 31 34 32 25 28 23 21 19 18 16 13 12 12 13 14 14 14 15 16 16 16 17 17 17 18 19 20 22 23 24 25 26 26
6 7 8 13 15 35 20 20 14 22 30 32 33 31 32 33 30 30 34 34 28 22 21 18 17 16 14 12 14 15 16 16 17 17 18 18 18 18 17 17 17 19 20 21 23 26 26 26 25
3 7 6 9 11 28 28 18 16 20 27 26 30 28 32 33 33 35 33 27 26 21 18 15 13 14 13 14 15 17 18 18 18 19 20 20 20 19 17 17 18 19 21 22 25 26 27 26 25
3 5 8 5 10 21 23 24 18 20 26 26 30 31 31 33 32 34 31 28 24 24 16 12 13 15 13 16 17 18 20 19 19 20 21 21 21 20 18 18 20 21 22 24 26 27 26 27 28
7 8 6 3 6 15 17 20 20 23 24 26 27 35 32 28 25 20 26 17 25 27 23 19 18 16 18 19 19 20 22 19 21 22 22 21 21 19 19 20 21 22 24 26 27 28 28 29 29
4 4 5 2 10 12 20 12 24 22 22 28 25 28 39 33 32 25 26 19 19 18 15 18 19 21 23 20 20 20 23 20 24 24 22 21 20 19 20 21 22 23 25 27 28 30 30 30 29
3 3 8 5 11 8 17 6 19 24 26 25 26 22 20 34 26 21 26 30 27 21 24 23 23 21 22 19 21 22 21 22 24 23 22 21 19 19 21 21 23 25 27 29 31 31 30 29 28
2 8 6 7 7 7 14 12 9 24 26 24 25 22 22 24 16 22 15 23 22 19 22 23 21 22 18 20 21 22 21 22 24 23 21 20 20 20 21 23 25 28 30 32 32 31 30 30 30
8 11 3 3 3 1 11 11 5 17 23 26 26 24 22 22 21 18 20 16 16 18 25 25 21 18 20 21 22 21 22 22 22 22 21 21 21 22 24 27 29 31 33 33 32 31 31 31 32
9 7 3 0 3 3 10 8 9 10 17 21 24 25 24 23 21 20 20 18 20 22 21 20 19 21 21 24 23 23 23 23 22 21 21 21 23 26 28 30 32 33 33 32 32 31 32 32 33
9 8 9 2 1 2 5 7 11 12 13 20 22 24 24 23 23 22 22 23 22 20 20 21 22 22 24 23 23 22 22 22 22 21 22 24 26 29 31 32 33 33 33 33 34 35 36 37 38
6 7 4 4 2 3 4 5 7 19 17 14 18 23 25 25 24 23 22 21 21 21 21 21 22 22 22 21 21 21 21 22 22 23 25 27 29 31 32 33 33 35 37 38 40 41 42 42 41
8 9 7 4 3 3 1 4 19 20 22 19 20 21 24 27 26 24 24 23 22 22 22 22 21 19 19 19 19 20 21 23 25 26 27 29 30 31 32 35 37 40 41 43 44 44 43 42 41
12 12 14 7 3 4 3 6 11 19 22 22 21 22 24 27 27 27 25 23 22 21 19 18 17 18 18 19 21 23 25 25 25 26 27 29 32 35 39 41 43 44 44 44 44 44 44 44 44
Wind_Direction
227 226 228 231 224 217 226 227 217 214 208 208 190 190 186 187 178 219 203 185 175 165 166 161 151 139 129 124 119 105 95 91 80 70 67 65 56 53 48 41 33 27 18 13 8 2 357 355 354
225 223 224 223 222 218 226 219 214 208 204 200 191 197 192 192 210 234 193 176 173 165 168 163 153 150 142 130 115 110 100 91 88 81 70 67 64 55 49 37 28 19 14 8 4 1 358 356 354
220 219 218 216 224 222 218 233 208 211 198 193 194 198 199 214 214 212 173 180 175 166 167 165 156 152 140 127 119 112 99 89 81 77 78 73 64 56 36 29 23 15 10 5 2 1 360 357 352
217 214 217 218 221 218 211 227 208 211 203 194 201 200 209 204 207 182 167 176 176 167 167 163 156 150 140 127 119 105 92 85 77 75 72 66 54 45 30 21 17 11 6 5 1 0 358 352 347
211 212 214 225 221 218 209 205 207 212 208 201 200 197 205 204 205 177 166 172 175 168 169 164 158 151 141 132 116 98 88 82 75 72 66 54 40 31 23 12 7 7 5 3 359 355 352 346 342
206 204 216 221 217 214 214 212 206 213 211 203 199 198 201 197 198 186 168 171 175 169 170 166 159 153 150 139 122 108 91 78 66 52 43 41 31 21 16 9 3 3 0 359 354 350 348 343 341
206 209 220 224 219 213 213 215 208 210 214 210 205 205 207 198 191 187 179 175 178 170 171 168 162 162 157 145 130 116 88 65 51 45 32 31 21 14 6 5 360 358 356 353 351 347 345 344 342
207 209 218 220 213 215 211 213 205 209 208 210 208 206 208 205 197 188 187 180 183 178 174 172 169 169 163 155 144 121 83 58 41 38 26 16 10 5 360 358 356 353 350 350 349 347 344 344 346
213 213 219 213 208 203 212 209 207 212 214 204 204 204 206 208 205 197 189 184 187 184 179 177 175 175 175 173 166 153 103 54 30 20 14 10 360 353 352 353 349 347 345 347 348 347 345 345 350
208 216 218 213 214 200 219 206 208 210 213 205 204 207 209 208 212 203 191 189 189 188 184 182 183 180 188 190 195 190 151 43 21 358 357 360 351 346 346 344 344 342 343 346 348 347 347 348 349
215 217 211 206 201 195 206 204 206 206 211 211 207 208 205 211 204 203 191 186 191 189 188 188 190 189 195 204 214 221 232 344 346 347 344 344 346 342 337 340 341 341 344 347 347 348 348 348 347
216 224 210 204 204 200 210 203 203 209 212 211 208 212 217 216 209 201 194 193 191 190 188 193 194 193 202 210 221 234 254 296 318 326 332 336 339 335 336 338 338 340 344 346 346 347 349 349 345
220 231 230 201 203 210 219 220 205 209 213 214 206 200 216 218 218 204 196 196 193 193 189 193 194 201 204 208 229 240 253 282 303 312 318 326 330 331 333 333 335 340 343 342 343 346 348 346 341
230 233 223 202 198 207 220 221 214 209 212 215 217 211 205 228 230 202 197 197 195 187 189 196 200 206 209 208 229 248 259 280 295 304 311 316 323 326 329 329 334 338 337 338 340 342 344 342 337
233 248 200 203 195 204 218 223 221 209 215 214 215 214 206 207 219 217 208 196 196 192 186 193 204 210 218 226 233 256 267 280 289 298 304 310 314 322 325 326 332 332 333 337 338 341 341 339 334
208 217 207 211 195 204 215 230 227 215 213 217 217 216 210 200 206 215 215 206 200 197 194 199 206 210 216 229 246 259 270 276 283 291 295 301 310 318 320 323 325 327 331 334 337 337 337 335 332
190 219 214 229 201 203 213 221 212 215 212 219 219 214 215 210 203 213 216 212 203 201 206 210 212 221 226 236 248 260 269 275 282 287 293 298 306 312 318 319 320 324 329 331 331 331 333 331 330
213 222 225 219 218 209 216 219 200 207 212 218 222 217 216 207 206 205 210 210 213 204 211 211 226 233 236 246 256 265 271 276 281 287 292 297 303 309 313 313 317 321 323 323 324 328 329 329 327
190 256 240 252 218 212 217 218 215 204 209 216 213 208 213 208 207 206 206 207 200 208 204 215 239 248 249 254 261 264 266 271 279 286 293 298 303 304 306 309 311 311 315 319 322 324 326 326 323
212 250 266 242 201 214 213 218 217 214 212 213 209 208 207 207 209 197 202 217 209 200 216 206 267 263 262 264 264 265 267 270 278 286 293 298 300 301 302 304 305 310 314 317 319 321 323 322 321
231 264 204 204 232 198 206 218 223 224 215 214 213 212 211 199 204 201 203 212 218 225 221 214 226 252 267 258 258 261 265 272 280 285 290 293 294 294 297 299 302 306 311 313 317 319 319 318 317
191 154 167 175 185 190 188 210 217 222 217 215 216 218 218 209 216 206 206 211 217 190 198 221 230 240 244 248 253 259 266 278 280 282 286 287 286 288 291 294 299 304 308 312 314 315 316 316 314
200 247 194 207 203 197 198 227 213 218 218 215 215 215 222 236 219 192 214 232 226 206 227 234 232 237 248 250 257 263 271 276 277 279 278 279 280 283 287 292 297 302 305 307 310 313 314 314 313
247 131 166 217 205 200 191 207 212 210 215 217 217 212 219 235 208 226 229 219 208 214 233 244 238 239 250 258 265 272 273 271 271 272 273 274 277 280 285 292 298 300 304 307 310 311 311 311 310
149 147 161 161 197 171 187 205 247 211 210 213 218 215 216 222 218 218 222 228 225 229 227 229 240 245 254 262 269 269 265 265 265 268 269 272 275 281 288 293 297 301 305 307 308 309 309 308 306
170 197 191 330 201 140 176 215 217 200 198 206 208 212 218 214 212 213 220 224 225 225 227 237 245 252 259 263 263 260 260 259 260 262 266 273 279 284 289 294 298 300 302 304 306 307 306 305 304
217 230 256 287 288 229 192 222 218 214 202 200 202 206 208 211 213 213 212 219 222 228 236 243 251 257 259 255 253 253 255 259 263 267 272 276 282 288 291 293 296 299 301 302 303 303 302 300 298
225 232 245 235 224 254 209 240 208 211 215 200 196 206 211 215 216 214 214 216 222 232 243 252 254 254 253 253 255 257 260 265 269 273 279 283 286 289 292 296 298 300 301 301 301 300 300 298 296
231 238 245 277 257 298 290 227 213 202 207 213 206 208 207 209 211 212 214 221 230 238 245 248 251 252 252 254 259 263 268 272 276 279 281 286 290 293 295 297 297 298 298 298 298 298 297 295 294
219 220 217 231 241 232 272 265 225 207 203 207 204 206 204 203 206 213 221 227 232 238 243 246 248 248 252 258 264 268 272 275 280 285 287 289 292 294 295 295 296 296 296 296 295 294 292 292 291